Retour au catalogue

STARLINK-3270

ActifCommunicationsVLEO
NORAD 50199·PAYLOAD·🇺🇸 United States

Lancé Dec 18, 2021 depuis Vandenberg Space Force Base

Loading…

Prochains Passages (prochaines 24 heures)

TLE

FraisSource: CelesTrak SupGP

Époque: Sep 15, 2026, 01:39 UTC

1 50199C 21125AV  26258.06923611  .00021058  00000+0  60230-3 0  2583
2 50199  53.1579  99.0513 0001266  77.8405 171.1627 15.35397099    16

Suivez STARLINK-3270 en temps réel avec AllMySat

Download on the App Store